Mosul, Iraq

10:52 AM +03 on May 21, 2018 (GMT +0300)
Mosul

Weather History for ORBM - November, 2012

Change the Weather History Date:

Friday, November 23, 2012

  Actual Average Record
Temperature  
Mean Temperature 56 °F -  
Max Temperature 63 °F - - ()
Min Temperature 49 °F - - ()
Degree Days  
Heating Degree Days 9    
Growing Degree Days 6 (Base 50)    
Moisture  
Dew Point 51 °F    
Average Humidity 84    
Maximum Humidity 94    
Minimum Humidity 68    
Precipitation  
Precipitation 0.20 in - - ()
Sea Level Pressure  
Sea Level Pressure 30.04 in    
Wind  
Wind Speed 1 mph ()    
Max Wind Speed 7 mph    
Max Gust Speed -    
Visibility 3.9 miles    
Events Rain    
T = Trace of Precipitation, MM = Missing Value Source: Averaged Metar Reports

Daily Weather History Graph

Daily Weather History Graph

Search for Another Location

Airport or City:

Astronomy

Nov. 23, 2012 Rise Set
Actual Time 6:52 AM +03 4:54 PM +03
Civil Twilight 6:24 AM +03 5:22 PM +03
Nautical Twilight 5:53 AM +03 5:54 PM +03
Astronomical Twilight 5:22 AM +03 6:24 PM +03
Moon 1:51 PM +03 (11/23) 1:57 AM +03 (11/23)
Length of Visible Light 10h 57m
Length of Day
10h 01m
Waxing Gibbous, 77% of the Moon is Illuminated
Nov 23
Waxing Gibbous
Nov 28
Full
Dec 6
Last Quarter
Dec 13
New
Dec 20
First Quarter

Hourly Weather History & Observations

Time (+03) Temp. Dew Point Humidity Pressure Visibility Wind Dir Wind Speed Gust Speed Precip Events Conditions
12:00 AM 54 °F 47 °F 68% 30.07 in 6 mi Calm Calm - -   Clear
12:00 AM 55.4 °F 48.2 °F 77% 30.01 in 5.6 mi Calm Calm - N/A   Partly Cloudy
1:00 AM 53.6 °F 48.2 °F 82% 30.01 in 5.6 mi Calm Calm - N/A   Partly Cloudy
2:00 AM 53.6 °F 46.4 °F 77% 30.01 in - Calm Calm - N/A   Clear
3:00 AM 63 °F 59 °F 83% 29.97 in 5 mi NNE 4.5 mph - - Rain Light Rain Showers
3:00 AM 51.8 °F 46.4 °F 82% 30.01 in - Calm Calm - N/A   Clear
4:00 AM 53.6 °F 46.4 °F 77% 30.01 in - Calm Calm - N/A   Clear
5:00 AM 53.6 °F 46.4 °F 77% 30.01 in 5.0 mi Calm Calm - N/A   Mostly Cloudy
6:00 AM 49 °F 44 °F 78% 30.06 in 6 mi Calm Calm - -   Clear
6:00 AM 51.8 °F 50.0 °F 94% 30.01 in 5.0 mi Calm Calm - N/A   Partly Cloudy
7:00 AM 51.8 °F 46.4 °F 82% - 3.7 mi Calm Calm - N/A   Scattered Clouds
8:00 AM 51.8 °F 46.4 °F 82% 30.04 in 3.1 mi South 3.5 mph - N/A   Partly Cloudy
9:00 AM 53 °F 46 °F 69% 30.09 in 6 mi Calm Calm - -   Clear
9:00 AM 55.4 °F 46.4 °F 72% 30.06 in 3.1 mi Calm Calm - N/A   Scattered Clouds
10:00 AM 57.2 °F 50.0 °F 77% - 2.5 mi Calm Calm - N/A   Haze
11:00 AM 57.2 °F 50.0 °F 77% 30.06 in 2.5 mi Calm Calm - N/A Rain Light Rain Showers
12:00 PM 58 °F 55 °F 86% 30.08 in 3 mi Calm Calm - - Rain Light Rain
12:00 PM 57.2 °F 53.6 °F 88% 30.04 in 1.9 mi Variable 5.8 mph - N/A Rain Light Rain Showers
1:00 PM 59.0 °F 57.2 °F 94% 30.04 in 0.9 mi Variable 3.5 mph - N/A Rain Rain Showers
2:00 PM 59.0 °F 57.2 °F 94% 30.04 in 1.9 mi Variable 4.6 mph - N/A   Mostly Cloudy
3:00 PM 56 °F 54 °F 93% 30.08 in 2 mi Calm Calm - - Rain Rain
3:00 PM 59.0 °F 57.2 °F 94% 30.04 in 1.9 mi Variable 3.5 mph - N/A Rain Light Rain Showers
4:00 PM 57.2 °F 53.6 °F 88% 30.06 in 2.5 mi Variable 4.6 mph - N/A Rain Light Rain Showers
5:00 PM 57.2 °F 53.6 °F 88% 30.06 in 3.1 mi Variable 3.5 mph - N/A Rain Light Rain Showers
6:00 PM 55 °F 53 °F 89% 30.09 in 4 mi NNE 6.7 mph - - Rain Light Rain
6:00 PM 57.2 °F 53.6 °F 88% 30.06 in 3.7 mi Variable 3.5 mph - N/A Rain Light Rain Showers
7:00 PM 57.2 °F 53.6 °F 88% 30.06 in 4.3 mi Calm Calm - N/A Rain Light Rain Showers
8:00 PM 57.2 °F 53.6 °F 88% 30.06 in 4.3 mi Calm Calm - N/A   Mostly Cloudy
9:00 PM 55 °F 53 °F 92% 30.08 in 5 mi Calm Calm - - Rain Light Rain
9:00 PM 55.4 °F 51.8 °F 88% 30.04 in 5.0 mi Calm Calm - N/A   Mostly Cloudy
10:00 PM 55.4 °F 51.8 °F 88% 30.04 in 5.0 mi Calm Calm - N/A   Partly Cloudy
11:00 PM 55.4 °F 53.6 °F 94% 30.04 in 5.0 mi Calm Calm - N/A   Mostly Cloudy